When you browse on this site, cookies collect data to enhance your experience and personalize the content and advertising you see.
Visit our Privacy Policy to learn more. By continuing to use the site, you agree to this use of cookies and data.
  • In Czech Republic
  • List of Countries
  • For 7 days
  • Water Temperature
  • Weather Map
  • Weather Widgets
  • user-avatar
    Login

    Hourly Weather Villahermosa

    Today, 22 August, Thursday

    Time Temperature Precipitation Wind Pressure Humidity
    00:00 +26°C° 0 mm 2 mps 759 mmHg 94%
    01:00 +26°C° 0 mm 1 mps 759 mmHg 94%
    02:00 +26°C° 0 mm 1 mps 758 mmHg 94%
    03:00 +26°C° 0 mm 1 mps 758 mmHg 94%
    04:00 +26°C° 0 mm 1 mps 758 mmHg 94%
    05:00 +26°C° 0 mm 1 mps 758 mmHg 94%
    06:00 +26°C° 0 mm 1 mps 758 mmHg 94%
    07:00 +27°C° 0 mm 1 mps 758 mmHg 90%
    08:00 +28°C° 0 mm 2 mps 759 mmHg 85%
    09:00 +29°C° 0 mm 2 mps 759 mmHg 81%
    10:00 +30°C° 0 mm 2 mps 759 mmHg 76%
    11:00 +31°C° 0 mm 2 mps 758 mmHg 71%
    12:00 +33°C° 0 mm 1 mps 758 mmHg 65%
    13:00 +33°C° 0 mm 1 mps 757 mmHg 63%
    14:00 +35°C° 0 mm 2 mps 756 mmHg 60%
    15:00 +36°C° 0 mm 2 mps 756 mmHg 57%
    16:00 +34°C° 0.4 mm 1 mps 756 mmHg 64%
    17:00 +33°C° 0.4 mm 1 mps 756 mmHg 71%
    18:00 +31°C° 0.4 mm 1 mps 755 mmHg 79%
    19:00 +30°C° 0.4 mm 1 mps 756 mmHg 82%
    20:00 +29°C° 0.4 mm 1 mps 757 mmHg 86%
    21:00 +28°C° 0.4 mm 2 mps 757 mmHg 89%
    22:00 +28°C° 0.2 mm 2 mps 757 mmHg 91%
    23:00 +28°C° 0.2 mm 1 mps 757 mmHg 92%

    Tomorrow, 23 August, Friday

    Time Temperature Precipitation Wind Pressure Humidity
    00:00 +27°C° 0.2 mm 1 mps 757 mmHg 94%
    01:00 +27°C° 0 mm 1 mps 757 mmHg 94%
    02:00 +27°C° 0 mm 1 mps 757 mmHg 95%
    03:00 +27°C° 0 mm 1 mps 757 mmHg 95%
    04:00 +26°C° 0 mm 1 mps 757 mmHg 96%
    05:00 +26°C° 0 mm 1 mps 758 mmHg 96%
    06:00 +26°C° 0 mm 1 mps 758 mmHg 96%
    07:00 +27°C° 0 mm 1 mps 758 mmHg 91%
    08:00 +28°C° 0 mm 1 mps 758 mmHg 87%
    09:00 +30°C° 0 mm 2 mps 759 mmHg 82%
    10:00 +31°C° 0 mm 1 mps 758 mmHg 75%
    11:00 +33°C° 0 mm 1 mps 758 mmHg 68%
    12:00 +35°C° 0 mm 1 mps 758 mmHg 61%
    13:00 +36°C° 0 mm 1 mps 757 mmHg 57%
    14:00 +36°C° 0 mm 1 mps 756 mmHg 54%
    15:00 +38°C° 0 mm 2 mps 756 mmHg 50%
    16:00 +36°C° 0 mm 2 mps 756 mmHg 57%
    17:00 +34°C° 0 mm 1 mps 755 mmHg 64%
    18:00 +33°C° 0 mm 1 mps 755 mmHg 70%
    19:00 +32°C° 0 mm 1 mps 756 mmHg 73%
    20:00 +31°C° 0 mm 1 mps 757 mmHg 77%
    21:00 +30°C° 0 mm 1 mps 757 mmHg 80%
    22:00 +29°C° 0.3 mm 1 mps 757 mmHg 82%
    23:00 +28°C° 0.3 mm 1 mps 758 mmHg 85%

    Day after tomorrow, 24 August, Saturday

    Time Temperature Precipitation Wind Pressure Humidity
    00:00 +28°C° 0.3 mm 1 mps 758 mmHg 87%
    01:00 +28°C° 0.1 mm 1 mps 758 mmHg 89%
    02:00 +27°C° 0.1 mm 1 mps 757 mmHg 90%
    03:00 +27°C° 0.1 mm 1 mps 757 mmHg 92%
    04:00 +26°C° 0 mm 1 mps 757 mmHg 93%
    05:00 +26°C° 0 mm 1 mps 757 mmHg 93%
    06:00 +26°C° 0 mm 1 mps 758 mmHg 94%
    07:00 +28°C° 0 mm 1 mps 758 mmHg 88%
    08:00 +29°C° 0 mm 1 mps 758 mmHg 81%
    09:00 +31°C° 0 mm 1 mps 759 mmHg 75%
    10:00 +32°C° 0 mm 1 mps 759 mmHg 68%
    11:00 +34°C° 0 mm 1 mps 758 mmHg 62%
    12:00 +36°C° 0 mm 1 mps 758 mmHg 55%
    13:00 +37°C° 0 mm 2 mps 757 mmHg 52%
    14:00 +38°C° 0 mm 2 mps 757 mmHg 48%
    15:00 +38°C° 0 mm 2 mps 756 mmHg 45%
    16:00 +37°C° 0 mm 2 mps 756 mmHg 52%
    17:00 +35°C° 0 mm 2 mps 756 mmHg 59%
    18:00 +32°C° 0 mm 2 mps 755 mmHg 66%
    19:00 +31°C° 0 mm 1 mps 756 mmHg 68%
    20:00 +30°C° 0 mm 1 mps 757 mmHg 71%
    21:00 +28°C° 0 mm 1 mps 757 mmHg 73%
    22:00 +28°C° 0 mm 1 mps 757 mmHg 74%
    23:00 +28°C° 0 mm 1 mps 757 mmHg 76%

    25 August, Sunday

    Time Temperature Precipitation Wind Pressure Humidity
    00:00 +28°C° 0 mm 1 mps 757 mmHg 77%
    01:00 +27°C° 0 mm 1 mps 757 mmHg 79%
    02:00 +27°C° 0 mm 1 mps 756 mmHg 82%
    03:00 +27°C° 0 mm 1 mps 756 mmHg 84%
    04:00 +25°C° 0 mm 0 mps 756 mmHg 85%
    05:00 +24°C° 0 mm 0 mps 756 mmHg 86%
    06:00 +24°C° 0 mm 0 mps 757 mmHg 87%
    07:00 +28°C° 0 mm 1 mps 757 mmHg 82%
    08:00 +30°C° 0 mm 1 mps 757 mmHg 76%
    09:00 +31°C° 0 mm 1 mps 757 mmHg 71%
    10:00 +33°C° 0 mm 1 mps 757 mmHg 66%
    11:00 +34°C° 0 mm 1 mps 757 mmHg 60%
    12:00 +36°C° 0 mm 1 mps 756 mmHg 55%
    13:00 +37°C° 0 mm 1 mps 756 mmHg 53%
    14:00 +38°C° 0 mm 2 mps 755 mmHg 50%
    15:00 +38°C° 0 mm 2 mps 755 mmHg 47%
    16:00 +37°C° 0.2 mm 2 mps 755 mmHg 56%
    17:00 +35°C° 0.2 mm 2 mps 755 mmHg 64%
    18:00 +32°C° 0.2 mm 2 mps 755 mmHg 73%
    19:00 +31°C° 0 mm 2 mps 755 mmHg 77%
    20:00 +30°C° 0 mm 2 mps 756 mmHg 80%
    21:00 +29°C° 0 mm 1 mps 756 mmHg 84%
    22:00 +28°C° 0 mm 1 mps 756 mmHg 84%
    23:00 +28°C° 0 mm 1 mps 756 mmHg 84%

    26 August, Monday

    Time Temperature Precipitation Wind Pressure Humidity
    00:00 +28°C° 0 mm 1 mps 756 mmHg 84%
    01:00 +27°C° 0 mm 1 mps 756 mmHg 85%
    02:00 +27°C° 0 mm 1 mps 755 mmHg 86%
    03:00 +27°C° 0 mm 1 mps 755 mmHg 86%
    04:00 +27°C° 0 mm 1 mps 755 mmHg 87%
    05:00 +26°C° 0 mm 1 mps 756 mmHg 88%
    06:00 +26°C° 0 mm 1 mps 756 mmHg 89%
    07:00 +28°C° 0 mm 1 mps 756 mmHg 83%
    08:00 +29°C° 0 mm 1 mps 757 mmHg 77%
    09:00 +31°C° 0 mm 1 mps 757 mmHg 72%
    10:00 +33°C° 0 mm 1 mps 756 mmHg 66%
    11:00 +35°C° 0 mm 2 mps 756 mmHg 60%
    12:00 +37°C° 0 mm 2 mps 756 mmHg 54%
    13:00 +37°C° 0 mm 2 mps 755 mmHg 52%
    14:00 +38°C° 0 mm 2 mps 755 mmHg 49%
    15:00 +38°C° 0 mm 2 mps 754 mmHg 47%
    16:00 +37°C° 0 mm 2 mps 754 mmHg 54%
    17:00 +36°C° 0 mm 2 mps 754 mmHg 62%
    18:00 +33°C° 0 mm 1 mps 754 mmHg 69%
    19:00 +32°C° 0 mm 1 mps 755 mmHg 72%
    20:00 +30°C° 0 mm 1 mps 755 mmHg 76%
    21:00 +29°C° 0 mm 1 mps 756 mmHg 79%
    22:00 +29°C° 0.7 mm 1 mps 756 mmHg 81%
    23:00 +28°C° 0.7 mm 2 mps 757 mmHg 84%

    27 August, Tuesday

    Time Temperature Precipitation Wind Pressure Humidity
    00:00 +27°C° 0.7 mm 2 mps 757 mmHg 86%
    01:00 +27°C° 0.1 mm 2 mps 757 mmHg 87%
    02:00 +27°C° 0.1 mm 2 mps 756 mmHg 88%
    03:00 +26°C° 0.1 mm 2 mps 756 mmHg 90%
    04:00 +26°C° 0 mm 2 mps 756 mmHg 89%
    05:00 +26°C° 0 mm 2 mps 757 mmHg 88%
    06:00 +26°C° 0 mm 2 mps 757 mmHg 87%
    07:00 +27°C° 0 mm 3 mps 757 mmHg 83%
    08:00 +29°C° 0 mm 3 mps 757 mmHg 79%
    09:00 +30°C° 0 mm 3 mps 758 mmHg 75%
    10:00 +33°C° 0 mm 3 mps 757 mmHg 69%
    11:00 +34°C° 0 mm 2 mps 757 mmHg 64%
    12:00 +36°C° 0 mm 2 mps 757 mmHg 59%
    13:00 +36°C° 0 mm 2 mps 756 mmHg 57%
    14:00 +37°C° 0 mm 2 mps 756 mmHg 55%
    15:00 +38°C° 0 mm 2 mps 755 mmHg 52%
    16:00 +36°C° 0.3 mm 2 mps 755 mmHg 59%
    17:00 +35°C° 0.3 mm 2 mps 756 mmHg 66%
    18:00 +33°C° 0.3 mm 1 mps 756 mmHg 72%
    19:00 +32°C° 0.3 mm 2 mps 756 mmHg 77%
    20:00 +30°C° 0.3 mm 2 mps 757 mmHg 81%
    21:00 +29°C° 0.3 mm 2 mps 757 mmHg 85%
    22:00 +28°C° 0.9 mm 2 mps 758 mmHg 85%
    23:00 +26°C° 0.9 mm 2 mps 758 mmHg 86%
    Show more